TimeEST,TemperatureF,Dew PointF,Humidity,Sea Level PressureIn,VisibilityMPH,Wind Direction,Wind SpeedMPH,Gust SpeedMPH,PrecipitationIn,Events,Conditions,WindDirDegrees,DateUTC
12:56 AM,18.0,3.9,54,30.47,9.0,North,3.5,-,N/A,,Clear,360,2013-01-28 05:56:00
1:56 AM,18.0,8.1,65,30.47,9.0,NNW,3.5,-,N/A,,Clear,330,2013-01-28 06:56:00
2:56 AM,19.0,8.1,62,30.45,9.0,North,3.5,-,N/A,,Clear,10,2013-01-28 07:56:00
3:56 AM,19.0,7.0,59,30.44,9.0,Calm,Calm,-,N/A,,Clear,0,2013-01-28 08:56:00
4:56 AM,17.6,8.6,68,30.43,9.0,NNE,3.5,-,N/A,,Clear,20,2013-01-28 09:56:00
5:56 AM,19.0,10.9,71,30.43,9.0,Calm,Calm,-,N/A,,Clear,0,2013-01-28 10:56:00
6:56 AM,19.9,12.9,74,30.43,9.0,Calm,Calm,-,N/A,,Scattered Clouds,0,2013-01-28 11:56:00
7:56 AM,23.0,14.0,68,30.43,7.0,Calm,Calm,-,N/A,,Overcast,0,2013-01-28 12:56:00
8:56 AM,26.1,10.9,53,30.41,7.0,Calm,Calm,-,N/A,,Overcast,0,2013-01-28 13:56:00
9:56 AM,30.2,6.8,37,30.40,8.0,Calm,Calm,-,N/A,,Overcast,0,2013-01-28 14:56:00
10:56 AM,33.1,15.1,48,30.38,9.0,SSW,3.5,-,N/A,,Overcast,200,2013-01-28 15:56:00
11:56 AM,33.1,21.0,61,30.32,6.0,SW,10.4,-,0.00,Snow,Light Snow,230,2013-01-28 16:56:00
12:16 PM,32.0,24.8,75,30.31,1.8,SW,10.4,-,0.00,Snow,Light Snow,230,2013-01-28 17:16:00
12:25 PM,30.2,26.6,86,30.30,1.0,SW,8.1,-,N/A,Snow,Light Snow,230,2013-01-28 17:25:00
12:56 PM,30.0,28.0,92,30.30,1.0,WSW,4.6,-,0.00,Snow,Light Snow,250,2013-01-28 17:56:00
12:58 PM,30.2,28.4,93,30.29,0.8,WSW,4.6,-,0.00,Snow,Light Snow,240,2013-01-28 17:58:00
1:10 PM,30.2,30.2,100,30.27,0.2,SSW,5.8,-,0.00,Fog-Snow,Snow,210,2013-01-28 18:10:00
1:28 PM,30.2,30.2,100,30.24,0.5,SSW,4.6,-,0.01,Fog-Snow,Snow,200,2013-01-28 18:28:00
1:42 PM,30.2,30.2,100,30.23,0.5,SSW,4.6,-,0.01,Fog-Snow,Snow,210,2013-01-28 18:42:00
1:56 PM,30.0,30.0,100,30.22,0.5,South,3.5,-,0.01,Fog-Snow,Snow,190,2013-01-28 18:56:00
2:27 PM,30.2,30.2,100,30.21,0.2,Calm,Calm,-,0.01,Fog-Snow,Snow,0,2013-01-28 19:27:00
2:41 PM,30.2,30.2,100,30.20,0.5,ESE,3.5,-,0.01,Fog-Snow,Snow,120,2013-01-28 19:41:00
2:52 PM,30.2,30.2,100,30.19,0.5,SE,4.6,-,0.01,Fog-Snow,Snow,130,2013-01-28 19:52:00
2:56 PM,30.9,30.9,100,30.19,0.2,ESE,4.6,-,0.02,Fog-Snow,Snow,120,2013-01-28 19:56:00
3:12 PM,30.2,30.2,100,30.17,0.5,ESE,5.8,-,0.00,Fog-Snow,Light Snow,120,2013-01-28 20:12:00
3:47 PM,32.0,32.0,100,30.14,1.5,SE,6.9,-,0.00,,Overcast,130,2013-01-28 20:47:00
3:56 PM,32.0,32.0,100,30.12,1.8,SSE,10.4,-,0.00,,Overcast,150,2013-01-28 20:56:00
4:05 PM,33.8,33.8,100,30.12,2.0,SSE,11.5,-,0.00,,Overcast,150,2013-01-28 21:05:00
4:56 PM,35.1,35.1,100,30.11,3.0,SSW,9.2,-,0.00,Rain,Light Rain,200,2013-01-28 21:56:00
5:56 PM,35.6,35.6,100,30.09,5.0,SSW,5.8,-,N/A,,Overcast,210,2013-01-28 22:56:00
6:56 PM,36.0,36.0,100,30.06,4.0,SSW,6.9,-,0.00,Rain,Light Rain,200,2013-01-28 23:56:00
7:56 PM,37.0,36.0,96,30.04,6.0,WSW,8.1,-,0.00,,Overcast,240,2013-01-29 00:56:00
8:56 PM,36.0,36.0,100,30.02,6.0,West,4.6,-,0.01,,Overcast,280,2013-01-29 01:56:00
9:56 PM,35.1,35.1,100,30.01,5.0,West,6.9,-,0.00,,Overcast,280,2013-01-29 02:56:00
10:04 PM,35.6,33.8,93,30.01,5.0,West,6.9,-,N/A,,Overcast,280,2013-01-29 03:04:00
10:56 PM,35.1,34.0,96,30.01,4.0,West,8.1,-,N/A,,Overcast,280,2013-01-29 03:56:00
11:56 PM,35.1,34.0,96,30.00,4.0,WNW,3.5,-,N/A,,Overcast,290,2013-01-29 04:56:00